[[{"header":{"parameterUnit":"m.s-1","parameterCategory":1,"la1":30.2991,"la2":30.254,"lo1":-89.0895,"lo2":-89.0444,"dy":0.0017,"dx":0.0017,"nx":28,"ny":28,"refTime":"2023-08-05T21:00:00:Z","depth":0,"parameterNumber":2,"parameterNumberName":"U-component_of_WINDS"},"data":[0,0,0,0,0,0,0,0,0,0,0,0,0,0,0,0,0,0,0,0,0,0,0,0,0,0,0,0,0,0,0,0,0,0,0,0,0,0,0,0,0,0,0,0,0,0,0,0,0,0,0,0,0,0,0,0,0,0,1.0336,1.0338,0,1.053,1.0533,1.0535,1.0588,1.0587,1.0585,1.0584,1.0788,1.0794,1.0801,0,0,0,0,0,0,0,0,0,0,0,0,0,1.0015,1.002,1.0335,1.0338,1.034,1.053,1.0533,1.0535,1.0588,1.0587,1.0585,1.0584,1.0786,1.0793,1.0801,0,0,0,0,0,0,0,0,0,0,0,0,0,1.0176,1.0022,1.0335,1.0389,1.0396,1.0529,1.0533,1.0536,1.0588,1.0587,1.0585,1.0583,1.0783,1.0793,1.0802,1.0897,0,0,1.0832,1.0836,0,0,0,0,0,0,0,0,1.0167,1.0188,1.0379,1.0386,1.0394,1.0533,1.0494,1.0657,1.0589,1.0515,1.0584,1.0582,1.0705,1.0721,1.0761,1.0906,1.0915,1.0833,1.0839,1.0843,1.0846,0,0,0,0,0,0,0,1.0156,1.018,1.0413,1.0382,1.0391,1.0406,1.0427,1.0525,1.0617,1.0522,1.0526,1.0548,1.0708,1.0752,1.0766,1.0918,1.0832,1.0841,1.0847,1.0851,1.1154,1.1156,0,0,0,0,0,0,1.0134,1.017,1.0407,1.0419,1.0274,1.0413,1.0437,1.049,1.0616,1.0634,1.0549,1.055,1.0736,1.0755,1.0774,1.0895,1.0843,1.0852,1.0857,1.1152,1.1154,1.1157,0,0,0,0,0,0,1.0127,1.0155,1.0399,1.0296,1.0328,1.042,1.048,1.0495,1.0538,1.0637,1.0655,1.0576,1.0735,1.076,1.0866,1.0903,1.0856,1.0865,1.1149,1.1152,1.1156,1.1137,0,0,0,0,0,0,1.0118,1.0152,1.0187,1.0296,1.0333,1.0486,1.0482,1.05,1.0554,1.0557,1.0667,1.0684,1.0736,1.0851,1.0876,1.0915,1.0873,1.1146,1.1151,1.1154,1.1135,1.1139,1.1143,0,0,0,0,0,1.0106,1.0175,1.0189,1.0217,1.0379,1.0488,1.0509,1.0567,1.0557,1.0595,1.0659,1.068,1.0894,1.0862,1.089,1.0933,1.1144,1.1149,1.1154,1.1133,1.1138,1.1143,0,0,0,0,0,0,1.0069,1.019,1.0207,1.0312,1.0389,1.0497,1.0546,1.057,1.0653,1.0652,1.072,1.0745,1.0847,1.0901,1.0862,1.1033,1.102,1.1031,1.0994,1.1,1.1004,1.099,1.0881,0,0,0,0,0,1.0072,1.0149,1.0251,1.0335,1.0372,1.0452,1.0502,1.0539,1.0623,1.0656,1.0728,1.0809,1.0895,1.095,1.1035,1.1142,1.1169,1.1186,1.119,1.1193,1.1202,1.1266,1.1276,1.1173,1.1173,1.1173,0,0,1.0081,1.0157,1.0201,1.0329,1.0393,1.0474,1.0479,1.0563,1.0624,1.0669,1.0774,1.083,1.0925,1.1033,1.1084,1.1081,1.1236,1.1199,1.1201,1.1209,1.1272,1.1282,1.129,1.1176,1.1176,1.1175,0,0,1.0139,1.0202,1.028,1.0345,1.0442,1.0495,1.0513,1.0618,1.0656,1.0763,1.0799,1.0873,1.1019,1.1086,1.1139,1.1225,1.1249,1.1251,1.1273,1.1335,1.1343,1.135,1.1383,1.1394,1.1259,1.1259,1.1259,0,1.0138,1.0259,1.0317,1.04,1.0457,1.05,1.0581,1.0641,1.0761,1.08,1.0794,1.0979,1.1046,1.1172,1.1193,1.1234,1.126,1.1239,1.1336,1.1345,1.1353,1.1385,1.1397,1.1259,1.1259,1.1259,1.1259,0,1.0255,1.0338,1.0389,1.0504,1.0566,1.0647,1.072,1.0776,1.0809,1.0863,1.0972,1.1054,1.1158,1.119,1.1222,1.1321,1.1317,1.1322,1.1312,1.1361,1.1393,1.1406,1.1258,1.1258,1.1258,1.1259,0,0,1.0294,1.044,1.0459,1.0513,1.0624,1.0691,1.0775,1.0875,1.0923,1.1005,1.1079,1.1202,1.121,1.127,1.1311,1.1364,1.1431,1.1365,1.1368,1.1376,1.1548,1.1545,1.1558,1.1447,1.1449,1.1451,1.1541,0,1.0367,1.0518,1.0574,1.0699,1.0779,1.0823,1.0897,1.0974,1.1028,1.1105,1.1164,1.1251,1.1252,1.129,1.1345,1.1411,1.1466,1.1405,1.1519,1.1523,1.1496,1.1574,1.157,1.1651,1.1554,1.1556,1.1557,0,1.0473,1.0556,1.0688,1.0793,1.0828,1.0894,1.0991,1.1063,1.1153,1.1189,1.1257,1.1295,1.1388,1.137,1.15,1.1457,1.1507,1.1547,1.1551,1.1566,1.1544,1.1593,1.1678,1.1691,1.1577,1.1575,1.1574,0,1.0491,1.0636,1.0735,1.078,1.0903,1.0948,1.1002,1.109,1.1147,1.1233,1.1272,1.1367,1.142,1.1494,1.1558,1.1538,1.1683,1.167,1.1718,1.1716,1.1748,1.1745,1.1844,1.1776,1.1776,1.1776,1.1775,0,1.0568,1.0648,1.0745,1.0806,1.0899,1.0963,1.1053,1.111,1.1188,1.1263,1.1306,1.1376,1.1454,1.1534,1.1585,1.1687,1.171,1.1743,1.1756,1.174,1.1737,1.1776,1.1773,1.1779,1.1778,1.1778,1.1777,0,1.0605,1.0672,1.0784,1.0892,1.0921,1.0984,1.1078,1.114,1.1195,1.129,1.1315,1.1403,1.15,1.1571,1.1696,1.173,1.184,1.1852,1.181,1.1817,1.1861,1.1857,1.199,1.2013,1.1927,1.1928,1.1928,0,1.065,1.0713,1.0828,1.0881,1.0935,1.1019,1.1078,1.1144,1.1205,1.1313,1.1363,1.1463,1.1546,1.17,1.1776,1.1873,1.1889,1.1929,1.1904,1.1887,1.1893,1.1889,1.1897,1.1933,1.1934,1.1934,1.1934,0,1.0725,1.0756,1.0839,1.0935,1.1004,1.1083,1.1162,1.1203,1.1285,1.135,1.145,1.1515,1.1643,1.1743,1.1847,1.1905,1.1935,1.1942,1.1958,1.1944,1.1919,1.1936,1.1822,1.1939,1.1938,1.1938,1.1938,1.1938,1.077,1.0829,1.092,1.1012,1.1079,1.1152,1.1217,1.1281,1.1365,1.1474,1.1509,1.1612,1.1704,1.1847,1.1906,1.199,1.1988,1.2012,1.2018,1.2024,1.2024,1.1903,1.2009,1.2009,1.2009,1.2009,1.2009,0,1.085,1.091,1.0994,1.1104,1.1178,1.1197,1.1287,1.1347,1.1438,1.152,1.1601,1.1717,1.1815,1.1899,1.2001,1.2052,1.2068,1.2076,1.2075,1.2088,1.2018,1.1995,1.2062,1.2062,1.2062,1.2062,1.2062,1.2062,1.09,1.1002,1.1044,1.1181,1.1242,1.1343,1.1393,1.1462,1.1529,1.1656,1.1737,1.1791,1.1875,1.1983,1.2074,1.2097,1.2134,1.2139,1.2165,1.2099,1.2093,1.2087,1.2065,1.2146,1.2146,1.2229,1.2229,1.223]},{"header":{"parameterUnit":"m.s-1","parameterCategory":1,"la1":30.2991,"la2":30.254,"lo1":-89.0895,"lo2":-89.0444,"dy":0.0017,"dx":0.0017,"nx":28,"ny":28,"refTime":"2023-08-05T21:00:00:Z","depth":0,"parameterNumber":3,"parameterNumberName":"V-component_of_WINDS"},"data":[0,0,0,0,0,0,0,0,0,0,0,0,0,0,0,0,0,0,0,0,0,0,0,0,0,0,0,0,0,0,0,0,0,0,0,0,0,0,0,0,0,0,0,0,0,0,0,0,0,0,0,0,0,0,0,0,0,0,5.6978,5.698,0,5.7157,5.7159,5.7161,5.7161,5.7158,5.7156,5.7154,5.7326,5.7332,5.7339,0,0,0,0,0,0,0,0,0,0,0,0,0,5.6624,5.663,5.6977,5.698,5.6982,5.7157,5.7159,5.7161,5.7161,5.7158,5.7156,5.7153,5.7323,5.7331,5.7339,0,0,0,0,0,0,0,0,0,0,0,0,0,5.6787,5.6633,5.6977,5.7003,5.7007,5.7156,5.7159,5.7162,5.7162,5.7158,5.7155,5.7152,5.7321,5.733,5.734,5.7471,0,0,5.7371,5.7375,0,0,0,0,0,0,0,0,5.6778,5.68,5.6997,5.7002,5.7007,5.7133,5.7097,5.7265,5.7163,5.7103,5.7154,5.715,5.7264,5.7278,5.7319,5.7479,5.7487,5.7372,5.7378,5.7382,5.7385,0,0,0,0,0,0,0,5.6767,5.6793,5.7048,5.7,5.7006,5.7002,5.7022,5.7129,5.72,5.7108,5.7108,5.713,5.7265,5.7309,5.7323,5.7489,5.7372,5.7381,5.7387,5.7391,5.7767,5.777,0,0,0,0,0,0,5.6752,5.6783,5.7042,5.7053,5.6882,5.7012,5.7033,5.7096,5.7199,5.7211,5.7133,5.7129,5.7294,5.7311,5.7329,5.749,5.7382,5.7392,5.7398,5.7763,5.7767,5.7772,0,0,0,0,0,0,5.6744,5.6775,5.7035,5.6919,5.6952,5.7021,5.7091,5.7101,5.7145,5.7218,5.7229,5.7165,5.7292,5.7315,5.7437,5.7496,5.7396,5.7405,5.7758,5.7764,5.777,5.7813,0,0,0,0,0,0,5.6734,5.6772,5.6825,5.692,5.6958,5.7144,5.7095,5.7107,5.7164,5.7161,5.7252,5.7263,5.7291,5.7422,5.7447,5.7508,5.7413,5.7753,5.7761,5.7768,5.7807,5.782,5.7831,0,0,0,0,0,5.6722,5.6827,5.6828,5.6859,5.7026,5.7147,5.7168,5.7202,5.7169,5.7221,5.7268,5.726,5.7485,5.7435,5.7463,5.7528,5.7749,5.7759,5.7767,5.7802,5.7818,5.7831,0,0,0,0,0,0,5.6733,5.684,5.6842,5.6983,5.7057,5.7147,5.7214,5.7217,5.7299,5.7292,5.7326,5.7346,5.7469,5.751,5.7451,5.766,5.7613,5.7628,5.7629,5.7645,5.7657,5.7645,5.7422,0,0,0,0,0,5.6753,5.6846,5.6933,5.7048,5.7086,5.7144,5.7197,5.7217,5.7293,5.7323,5.7379,5.7449,5.7536,5.7593,5.7676,5.7812,5.7832,5.7871,5.7883,5.7893,5.7905,5.7981,5.8,5.7801,5.7801,5.7801,0,0,5.6793,5.6863,5.6919,5.7053,5.7112,5.7205,5.717,5.7269,5.7337,5.7337,5.7458,5.7501,5.7581,5.7712,5.7772,5.775,5.7964,5.7904,5.7911,5.7919,5.7992,5.8011,5.8027,5.7807,5.7806,5.7805,0,0,5.6914,5.6977,5.7082,5.7143,5.7235,5.7273,5.7298,5.7389,5.7419,5.7542,5.7544,5.7623,5.7772,5.783,5.7879,5.8024,5.802,5.805,5.8113,5.8187,5.8203,5.8217,5.8269,5.8287,5.8062,5.8062,5.8062,0,5.6952,5.7096,5.7133,5.7235,5.7293,5.7301,5.7406,5.7461,5.7574,5.7613,5.7587,5.7776,5.7831,5.7975,5.8011,5.805,5.8078,5.804,5.8198,5.8212,5.8226,5.8276,5.8296,5.8065,5.8065,5.8064,5.8064,0,5.7138,5.7237,5.7309,5.7424,5.749,5.7592,5.7642,5.7703,5.7717,5.7757,5.788,5.7947,5.8045,5.808,5.8092,5.8227,5.8211,5.8191,5.8145,5.8248,5.8296,5.8315,5.807,5.8068,5.8068,5.8067,0,0,5.7271,5.7408,5.7434,5.7486,5.7589,5.7665,5.7766,5.7867,5.7919,5.7995,5.8081,5.8207,5.8191,5.8246,5.8265,5.8329,5.8441,5.8302,5.8304,5.8326,5.8593,5.8609,5.8631,5.8438,5.8442,5.8445,5.8587,0,5.7405,5.7591,5.7628,5.7787,5.7879,5.7889,5.7976,5.8047,5.8087,5.8168,5.8209,5.83,5.827,5.8304,5.8368,5.8414,5.8495,5.8404,5.8516,5.8519,5.8497,5.8656,5.8672,5.8803,5.8606,5.8609,5.8611,0,5.7586,5.7674,5.7844,5.7936,5.7976,5.8055,5.8151,5.8229,5.8308,5.8332,5.8396,5.8408,5.851,5.8458,5.8599,5.8536,5.8584,5.8613,5.8618,5.8631,5.8573,5.8673,5.8845,5.8865,5.8641,5.8639,5.8636,0,5.7669,5.7828,5.7951,5.7995,5.8106,5.8161,5.8209,5.8285,5.8344,5.8425,5.8464,5.8554,5.8604,5.8672,5.8707,5.8666,5.8846,5.8796,5.8867,5.8867,5.8905,5.8903,5.9089,5.8934,5.8933,5.8933,5.8933,0,5.7815,5.7919,5.799,5.8066,5.8182,5.8222,5.8334,5.838,5.8449,5.8531,5.8542,5.8618,5.8659,5.8741,5.8768,5.8881,5.8902,5.8923,5.8929,5.8923,5.8921,5.8956,5.8948,5.8938,5.8937,5.8936,5.8935,0,5.7927,5.7979,5.8115,5.8209,5.8235,5.8317,5.8396,5.8468,5.8508,5.8612,5.8639,5.87,5.8797,5.8839,5.8955,5.8974,5.9103,5.9102,5.9078,5.9081,5.915,5.9143,5.9365,5.9397,5.922,5.9221,5.9223,0,5.8018,5.8099,5.8204,5.8263,5.8314,5.8406,5.8468,5.8509,5.8571,5.8669,5.8728,5.8826,5.8907,5.906,5.9113,5.9203,5.9204,5.9276,5.9217,5.9209,5.9207,5.9202,5.9211,5.9286,5.9288,5.929,5.9291,0,5.8174,5.8196,5.8287,5.8387,5.8461,5.8539,5.8616,5.8662,5.8715,5.8784,5.8886,5.8949,5.9071,5.9167,5.9261,5.9305,5.9307,5.9309,5.933,5.9326,5.9309,5.9321,5.9109,5.9304,5.9302,5.9302,5.9301,5.93,5.8279,5.8353,5.8439,5.8539,5.8603,5.8675,5.8749,5.8799,5.8886,5.8993,5.901,5.9118,5.9194,5.9321,5.9369,5.9452,5.9434,5.9464,5.9472,5.948,5.9485,5.9296,5.9468,5.9468,5.9468,5.9467,5.9467,0,5.8437,5.8494,5.8586,5.8697,5.8775,5.8773,5.8859,5.8923,5.902,5.9093,5.9174,5.929,5.9384,5.9445,5.9539,5.9594,5.9597,5.9617,5.9614,5.9624,5.9495,5.9468,5.9613,5.9613,5.9613,5.9613,5.9613,5.9613,5.8529,5.8654,5.8687,5.8842,5.8896,5.9007,5.9056,5.9122,5.9181,5.9312,5.9392,5.9433,5.9501,5.96,5.9685,5.97,5.9735,5.9757,5.977,5.9648,5.9633,5.9619,5.9594,5.9763,5.9764,5.9894,5.9895,5.9896]}]]